Location: *
(33.8649°S, 62.1526°E)
Time: 13:06:37
(UTC+00:00)

USA 215 - Pass Details

Date: 17 January 2021
Orbit: 1103 x 1105 km, 123.0° (Epoch: 14 February)

Event Time Altitude Azimuth Distance (km) Brightness Sun altitude
Exits shadow 18:05:02 39° 320° (NW) 1,603 3.9 -28.9°
Maximum altitude 18:05:40 40° 306° (NW) 1,583 4.0 -28.9°
Drops below altitude 10° 18:11:46 10° 238° (WSW) 2,983 6.2 -29.6°
Sets 18:14:28 0° 231° (SW) 3,946 7.2 -29.9°
